Location: *
(11.7485°N, 79.7483°E)
Time: 11:23:27
(UTC+00:00)

Daily predictions for brighter satellites

Satellite Brightness Start Highest point End
(mag) Time Altitude Azimuth Time Altitude Azimuth Time Altitude Azimuth
Ariane H10-3 3.1 13:04:03 10° W 13:10:27 56° S 13:14:54 10° ESE
Meteor 1-24 Rocket 3.7 13:05:46 10° N 13:10:56 57° E 13:16:08 10° SSE
NOAA 11 4.4 13:10:32 10° SSE 13:15:46 52° ENE 13:21:01 10° N
Cosmos 1953 2.7 13:12:04 10° SSE 13:15:47 40° E 13:19:30 10° NNE
Cosmos 2315 Rocket 4.1 13:09:40 10° S 13:15:57 88° E 13:22:17 10° N
SeaSat 1 4.3 13:11:37 10° N 13:16:04 35° WNW 13:20:31 10° SW
Cosmos 1470 3.3 13:12:49 10° SSW 13:16:38 65° W 13:20:28 10° N
OE (NEXTSAT) 4.5 13:13:48 10° SSW 13:17:12 53° SE 13:20:36 10° NE
STARLINK-1079 4.4 13:14:28 10° NNW 13:18:13 34° NE 13:21:59 10° ESE
Milstar 3 Cent rocket 3.7 13:12:07 10° WNW 13:18:50 70° SSW 13:33:14 10° SE
GPS 2-15 Rocket1 4.0 13:15:32 10° WNW 13:20:12 42° N 13:24:52 10° E
STARLINK-1116 4.2 13:19:20 10° NNW 13:23:12 39° NE 13:27:03 10° ESE
BREEZE M DEB (TANK) 4.2 13:21:38 10° W 13:23:28 18° NW 13:25:09 10° N
Cosmos 1726 2.8 13:20:51 10° SSE 13:24:14 33° E 13:27:36 10° NNE
ARIANE 5 R/B 3.8 13:24:04 10° SSW 13:24:37 11° S 13:25:11 10° SSE
Cosmos 1110 Rocket 4.4 13:20:40 10° NNW 13:25:48 68° WSW 13:30:55 10° S
Cosmos 1626 Rocket 4.3 13:22:15 10° NNE 13:26:04 31° E 13:29:52 10° SSE
Aureole 3 3.3 13:26:29 10° S 13:30:08 81° E 13:34:45 10° N
SL-24 R/B - RUBIN 2 4.0 13:26:32 10° SSW 13:31:18 82° WNW 13:36:46 10° NNE
STARLINK-1094 3.8 13:29:07 10° NNW 13:33:08 52° NE 13:36:41 13° SE
Cosmos 407 Rocket 3.7 13:28:50 10° S 13:33:46 45° ESE 13:38:39 10° NNE
deb Ariane 3.9 13:26:21 10° W 13:35:09 50° S 13:37:34 17° ESE
Okean-O 4.0 13:32:30 10° S 13:36:41 42° W 13:40:53 10° NNW
Cosmos 1602 Rocket 4.2 13:33:38 10° NNE 13:37:32 32° E 13:41:25 10° SSE
STARLINK-1117 3.6 13:34:02 10° NNW 13:38:07 61° NE 13:41:28 15° SE
Cosmos 1709 Rocket 3.9 13:32:06 10° N 13:38:08 65° E 13:44:10 10° SSE
STARLINK-1078 3.5 13:38:58 10° NNW 13:43:05 72° NE 13:46:16 16° SE
CZ-2D R/B 3.2 13:39:45 10° SSE 13:43:35 90° NNW 13:47:22 10° N
ATLAS 5 CENTAUR R/B 2.4 13:41:43 10° SW 13:45:35 46° WNW 13:49:27 10° N
Aureole 2 Rocket 4.2 13:44:15 10° NNE 13:45:27 15° NE 13:45:27 15° NE
Meteor 1-16 Rocket 4.0 13:42:14 10° S 13:47:29 69° E 13:52:50 10° NNE
Cosmos 2228 3.3 13:43:53 10° SSE 13:47:55 42° E 13:51:57 10° NNE
STARLINK-1108 3.5 13:43:56 10° NNW 13:48:04 83° ENE 13:51:03 18° SE
STARLINK-1071 3.6 13:48:53 10° NW 13:53:01 84° SW 13:55:50 20° SSE
ASTRO E2 3.5 13:49:31 10° SSW 13:53:05 31° SSE 13:53:54 29° ESE
Cosmos 1606 Rocket 3.4 13:53:37 10° S 13:57:57 67° E 14:02:20 10° N
STARLINK-1110 3.7 13:53:53 10° NW 13:57:59 73° WSW 14:00:38 21° SSE
Cosmos 1023 Rocket 4.4 13:54:45 10° S 13:59:56 64° ESE 14:05:02 10° NNE
CZ-3B Rocket 1.5 13:56:24 10° WSW 14:00:02 81° SSE 14:02:01 29° E
ATLAS 5 CENTAUR R/B 2.6 13:57:14 10° WNW 14:00:48 44° N 14:08:57 16° ENE
Cosmos 1302 Rocket 4.3 13:56:44 10° NNW 14:01:59 70° WSW 14:07:14 10° S
Cosmos 2297 4.3 13:56:56 10° NNW 14:02:31 59° WSW 14:08:08 10° S
STARLINK-1124 4.0 13:58:52 10° NW 14:02:56 62° SW 14:05:23 23° SSE
CSL-04 Debris 4.5 13:58:20 10° S 14:03:47 70° WSW 14:09:14 10° NNW
STARLINK-1122 4.2 14:03:53 10° NW 14:07:54 53° SW 14:10:11 23° SSE
GOES 2 Rocket 2.8 14:10:11 10° WNW 14:14:20 77° NNE 14:15:04 59° E
H-2A R/B 2.4 14:14:00 41° ESE 14:14:49 44° ENE 14:19:45 10° N
Meteor 1-21 Rocket 4.1 14:10:07 10° N 14:15:36 65° E 14:19:10 23° SSE
CZ-2C R/B 3.5 14:16:56 38° ENE 14:16:56 38° ENE 14:20:59 10° N
Cosmos 1943 Rocket 2.1 14:11:00 10° N 14:16:30 61° ENE 14:18:23 40° SE
Cosmos 2369 Rocket 2.3 14:19:52 10° N 14:25:20 51° ENE 14:25:24 51° ENE
Cosmos 1340 Rocket 4.3 14:29:13 27° N 14:29:13 27° N 14:31:08 10° N
GPS 2-12 Rocket1 4.1 14:22:43 10° SW 14:26:15 33° S 14:26:15 33° S
USA 234 4.0 14:23:14 10° NNE 14:29:29 50° NW 14:35:45 10° SW
ARIANE 5 R/B 3.9 14:24:40 10° WSW 14:31:27 46° S 14:31:38 45° S
Hubble Space Telescope 3.5 14:32:09 10° NNW 14:32:58 10° NNW 14:33:47 10° N
Cosmos 292 Rocket 3.7 14:28:41 10° NNW 14:33:30 86° WSW 14:33:56 74° S
MOS 1 Rocket 3.9 14:29:35 10° NNE 14:33:43 50° NE 14:33:43 50° NE
IRS-1A Rocket 4.1 14:33:41 53° SSE 14:35:03 80° ENE 14:40:45 10° N
Ariane Rocket 2.9 14:36:06 62° S 14:36:59 86° WSW 14:42:03 10° NNW
CZ-2C R/B 4.4 14:35:30 10° N 14:39:58 53° WNW 14:44:22 10° SSW
ARGOS 3.5 14:54:21 60° NNW 14:54:21 60° NNW 14:58:42 10° NNW
Cosmos 2184 Rocket 4.1 14:49:48 10° N 14:55:59 73° W 14:57:09 58° SSW
ATLAS 3B CENTAUR R/B 4.0 14:59:20 10° W 15:02:37 16° SW 15:02:37 16° SW
CZ-2C R/B 3.8 15:01:26 10° N 15:04:31 34° NNW 15:04:31 34° NNW
VEP-3 4.5 21:06:57 46° NNE 21:06:57 46° NNE 21:23:46 10° ENE
Centaur AC-119 4.4 22:09:29 76° WNW 22:10:23 89° NNE 22:42:37 10° ESE
ATLAS 3B R/B 4.4 22:18:47 18° NNW 22:18:47 18° NNW 22:20:41 10° N
Ariane H10+ 4.0 22:17:52 43° S 22:19:56 48° SSE 22:44:09 10° E
CZ-2C R/B 3.9 22:17:52 10° NNE 22:20:20 30° NE 22:20:20 30° NE
SL-16 R/B 3.9 22:18:16 10° NNE 22:23:10 30° ENE 22:28:05 10° SE
ADEOS 4.2 22:27:22 10° NNE 22:31:05 48° NNE 22:31:05 48° NNE
Cosmos 2263 Rocket 2.9 22:41:36 42° NNW 22:41:36 42° NNW 22:45:30 10° N
PSLV R/B 4.0 22:43:27 66° NNE 22:43:27 66° NNE 22:46:11 10° E
Cosmos 1092 Rocket 3.8 22:42:21 61° SSW 22:43:30 79° W 22:49:50 10° N
Cosmos 494 Rocket 4.1 22:49:34 10° N 22:54:48 73° ENE 23:00:01 10° SSE
Cosmos 2026 Rocket 3.8 22:49:35 15° S 22:54:54 90° E 23:01:00 10° N
CZ-4B R/B 4.3 22:52:14 10° NNE 22:56:29 42° E 23:00:46 10° S
GPS 2-04 Rocket1 3.8 22:59:16 34° SSE 22:59:16 34° SSE 23:01:35 10° SE
Cosmos 1437 Rocket 2.7 23:03:10 61° S 23:03:50 88° E 23:07:55 10° N
Cosmos 1428 Rocket 4.3 22:58:46 10° S 23:04:51 82° W 23:10:59 10° N
GPS 2-12 Rocket1 2.8 23:05:03 70° WNW 23:05:33 89° NNE 23:09:58 10° ESE
STARLINK-52 3.5 23:08:21 53° NNE 23:08:39 56° NE 23:11:48 10° SE
Cosmos 1689 Rocket 2.7 23:07:21 10° SSE 23:10:18 56° ENE 23:13:14 10° N
IUS-17 SRM-1 3.5 23:11:05 39° NW 23:12:16 71° NNE 23:22:42 10° ESE
Cosmos 2151 Rocket 3.6 23:09:33 10° NNW 23:13:50 54° W 23:18:08 10° S
Cosmos 1269 Rocket 4.1 23:09:39 10° N 23:14:57 78° ENE 23:20:14 10° SSE
STARLINK-1150 3.6 23:18:54 44° NW 23:18:54 44° NW 23:22:13 10° NNE
Gblst 52 Del rocket 4.2 23:17:35 21° NW 23:21:14 55° SW 23:26:33 10° SSE
FUSE 4.5 23:19:48 30° WNW 23:21:54 45° NNW 23:26:59 10° NE
STARLINK-1170 3.9 23:23:42 37° WNW 23:23:55 37° NW 23:27:22 10° NNE
SWIFT 3.9 23:24:35 16° NW 23:27:06 28° N 23:30:47 10° ENE
Cosmos 1655 Rocket 4.3 23:23:57 10° S 23:30:19 74° E 23:36:39 10° N
Meteor 1-31 Rocket 3.5 23:31:57 10° NNW 23:35:26 32° WNW 23:36:59 23° WSW
Lacrosse 4 Rocket 2.3 23:31:23 10° S 23:35:28 51° ESE 23:39:41 10° NNE
STARLINK-1132 4.5 23:37:15 23° WNW 23:37:56 25° NW 23:40:56 10° N
STARLINK-1183 4.4 23:38:34 20° NW 23:38:38 20° NW 23:41:00 10° N
STARLINK-1151 4.3 23:38:24 23° WNW 23:39:04 25° NW 23:41:58 10° N
STARLINK-1181 4.4 23:39:01 20° NW 23:39:06 20° NW 23:41:27 10° N
STARLINK-1196 4.5 23:39:26 19° NW 23:39:33 19° NW 23:41:53 10° N
STARLINK-1186 4.5 23:39:52 19° NW 23:39:58 19° NW 23:42:16 10° N
STARLINK-1185 4.5 23:40:17 19° WNW 23:40:25 19° NW 23:42:43 10° N
STARLINK-1133 4.4 23:39:48 22° WNW 23:40:31 24° NW 23:43:23 10° N
STARLINK-1139 4.5 23:41:14 21° WNW 23:42:00 23° NW 23:44:48 10° N
ALOS 2.2 23:37:50 10° N 23:42:28 68° WNW 23:47:05 10° SSW
METEOR-M 4.1 23:37:16 10° N 23:42:36 79° WNW 23:47:56 10° SSW
Lacrosse 5 2.1 23:41:19 16° SW 23:45:12 48° WNW 23:50:04 10° NNE
Meteor PRIRODA 3.9 23:42:38 10° N 23:46:10 46° WNW 23:49:44 10° SSW
Cosmos 1975 Rocket 3.4 23:42:27 10° SSW 23:46:31 41° W 23:50:36 10° NNW
PSLV R/B 3.7 23:43:22 10° N 23:47:23 83° WNW 23:51:19 10° SSW
Palapa B4 Rocket 3.9 23:42:45 17° W 23:48:39 71° NNW 23:53:27 10° ENE
Okean 2 3.9 23:45:31 10° SSW 23:49:19 36° W 23:53:07 10° NNW
H-2A R/B 3.1 23:47:06 10° NNW 23:50:30 30° WNW 23:53:53 10° SW
FENGYUN 3A 3.7 23:48:10 10° N 23:53:24 55° WNW 23:58:37 10° SSW
